Cloud_Cover
100 100 100 100 100 100 100 100 100 100 100 100 100 100 100 100 100 100 100 100 100 100 100 100 100 100 100 90 100 27 5 90 91 94 100 100 100 100 100 100 100 100 100 100 100 100 100
100 100 100 100 100 100 100 100 100 100 100 100 100 100 100 100 100 100 100 100 100 100 100 100 100 100 100 100 100 71 84 82 89 100 95 60 90 42 100 100 100 100 100 100 100 100 100
100 100 100 100 100 100 100 100 100 100 100 100 100 100 100 100 100 100 100 100 100 100 100 100 100 81 99 100 100 35 40 100 100 100 6 5 1 31 100 100 100 100 100 100 100 100 100
100 100 100 100 100 100 100 100 100 100 100 100 100 100 100 100 100 100 100 100 100 100 100 100 100 100 100 100 89 98 15 10 24 21 4 5 4 6 92 100 100 100 100 100 100 100 100
100 100 100 100 100 100 100 100 100 100 100 100 100 100 100 100 100 100 100 100 100 100 100 99 100 100 100 100 84 90 5 8 12 92 49 58 29 6 4 34 97 92 14 8 92 100 100
100 100 100 100 100 100 100 100 100 100 100 100 100 100 100 100 100 100 100 100 100 100 100 100 100 100 95 87 40 57 22 55 85 35 100 100 96 47 25 90 29 2 0 4 96 100 98
100 100 100 100 100 100 100 100 100 100 100 100 100 100 100 100 100 100 100 100 100 100 97 100 62 62 64 38 9 100 100 100 100 100 100 99 70 100 100 21 17 4 27 12 73 61 5
100 100 100 100 100 100 100 100 100 100 100 100 100 100 100 100 100 100 100 100 100 28 18 63 86 80 100 90 20 100 100 99 100 100 100 100 67 68 4 11 45 6 6 11 59 98 64
100 100 100 100 100 100 100 100 100 100 100 100 100 99 100 100 96 98 46 75 54 21 7 94 100 100 100 52 22 100 100 100 95 68 100 100 100 100 83 8 37 17 4 7 4 59 5
100 100 100 100 100 100 100 100 100 100 100 100 100 100 100 100 97 58 42 28 19 50 8 100 100 99 60 100 100 100 100 81 38 100 100 61 100 100 100 13 100 15 100 52 67 93 17
100 100 100 100 100 100 100 100 100 100 100 100 100 100 100 100 100 97 12 18 68 17 30 36 89 99 99 100 100 100 100 100 99 98 86 45 80 100 100 100 79 7 100 100 100 87 78
100 100 100 100 100 100 100 100 100 100 100 100 100 99 100 100 100 64 87 98 100 82 85 81 100 24 64 100 100 100 100 100 100 100 66 26 85 17 100 100 100 100 88 96 99 69 99
100 100 100 100 100 100 100 100 100 100 100 100 100 100 100 100 100 96 100 87 51 92 100 100 82 35 5 100 100 100 100 95 100 100 100 100 100 100 100 100 100 100 100 83 100 68 39
100 100 100 100 100 100 100 100 100 100 100 100 100 100 100 100 100 95 91 95 94 100 100 100 100 100 11 44 19 98 99 100 100 100 100 100 100 100 100 100 100 100 100 100 99 97 5
100 100 100 100 100 100 100 100 100 100 100 100 100 100 100 100 100 100 100 100 9 33 42 98 96 21 36 39 6 48 97 97 98 100 100 100 97 6 92 100 100 100 100 100 100 100 100
100 100 100 100 100 100 100 100 100 100 100 100 100 100 100 100 100 100 100 100 58 100 100 100 60 13 5 67 94 50 22 36 28 51 100 100 100 16 4 99 59 64 84 100 100 100 100
100 100 100 100 100 100 100 100 100 100 100 100 100 100 100 100 100 100 100 98 100 100 100 100 100 53 80 100 100 100 100 98 100 100 78 100 100 40 80 90 100 100 67 100 100 100 80
100 100 100 100 100 100 100 100 100 100 100 100 100 100 100 100 100 100 100 100 100 100 100 100 100 100 100 100 100 100 100 100 100 100 100 100 100 100 100 100 100 100 100 100 100 100 100
100 100 100 100 100 100 100 100 100 100 100 100 100 100 100 100 100 100 100 100 100 100 100 100 100 100 99 100 100 100 100 98 100 100 100 100 100 100 100 100 100 100 100 100 100 100 100
100 100 100 100 100 100 100 100 100 100 100 100 100 100 100 100 100 100 100 100 100 100 100 100 100 100 100 100 100 100 100 100 100 100 100 100 100 100 100 100 100 100 100 100 100 100 100
100 100 100 100 100 100 100 100 100 100 100 100 100 100 100 100 100 100 100 100 100 100 100 100 100 100 100 100 96 100 100 100 100 100 100 100 100 100 100 98 100 100 100 100 100 100 100
100 100 100 100 100 100 100 100 100 100 100 100 100 100 100 100 100 100 100 100 100 100 100 100 100 100 100 99 50 43 97 100 100 100 100 100 100 100 100 100 100 100 100 100 100 100 100
41 99 100 100 100 100 100 100 100 100 100 100 100 100 100 100 100 95 100 100 12 9 11 46 100 100 100 100 100 92 57 80 40 93 92 100 100 100 100 100 100 100 100 100 100 100 100
27 5 40 81 84 72 11 100 100 100 100 100 100 100 100 100 97 72 5 5 5 23 95 97 100 100 97 100 100 100 9 6 76 100 45 13 98 95 30 54 100 99 100 100 100 100 100
35 17 5 5 5 100 100 16 9 32 49 44 39 98 100 75 79 13 5 5 12 8 34 68 100 100 97 98 41 5 12 78 50 47 92 45 6 100 100 100 100 22 100 100 99 100 100
8 81 65 17 98 100 100 100 25 40 98 64 9 28 100 99 38 100 87 27 65 92 77 5 91 12 87 92 74 10 6 5 0 0 56 100 100 100 100 100 83 20 100 100 100 93 100
5 5 49 13 68 79 100 100 100 100 8 58 12 27 98 98 93 71 34 74 100 91 27 62 5 5 4 5 31 18 6 5 4 0 0 4 10 100 100 100 62 62 100 100 100 64 82
5 45 49 92 100 50 83 100 100 100 100 90 73 62 39 97 77 100 100 100 100 57 6 46 5 5 5 6 12 8 34 5 8 1 45 65 78 66 100 100 100 100 100 100 99 95 100
24 23 57 100 100 100 100 100 100 100 100 100 100 100 100 100 97 99 100 100 36 38 25 22 31 5 5 40 65 34 19 57 16 24 47 99 94 100 100 100 100 100 100 100 100 100 100